{"data":{"norad_id":61216,"epoch":"2026-05-24T21:20:53.892096Z","epoch_age_seconds":84829,"freshness":"FRESH","line1":"1 61216U 24171S   26144.88951264  .00018005  00000+0  61625-3 0  9997","line2":"2 61216  53.1604 328.6035 0000757  58.3001 301.8073 15.30321766 94032","mean_motion":15.30321766,"eccentricity":7.57e-5,"inclination_deg":53.1604,"raan_deg":328.6035,"arg_perigee_deg":58.3001,"mean_anomaly_deg":301.8073,"bstar":0.00061625,"rev_number":9403,"period_min":94.097857848805,"perigee_km":474.33275096835,"apogee_km":475.37029343061,"semimajor_km":6852.9885221995,"source":"CELESTRAK","updated_at":"2026-05-25T13:38:19.362193Z"}}